Flag for U.S.A. Weather past 2 weeks in Spartanburg, South Carolina, U.S.A.

Now
70 °F

Fog.


Feels Like: 70 °F
Forecast: 63 / 78 °F
Wind: No wind

Location: Spartanburg Memorial

Current Time: Sep 18, 2014 at 12:16:15 PM

Latest Report: Sep 18, 2014 at 11:35 AM


Visibility: 4 mi

Pressure: 30.02 "Hg

Humidity: 100%

Dew point: 70 °F

Location of SpartanburgLocation

Historic Weather in Spartanburg — Graph

°F

Spartanburg temperature yesterday

Maximum temperature yesterday: 75 °F (at 12:15 PM)
Minimum temperature yesterday: 64 °F (at 10:35 PM)
Average temperature yesterday: 71 °F

Past Weeks' High & Low Weather Summary

 TemperatureHumidityPressure
High93 °F (Sep 3, 3:15 PM)100% (Sep 3, 7:35 PM)30.28 "Hg (Sep 3, 7:35 PM)
Low63 °F (Sep 14, 8:35 AM)41% (Sep 5, 5:15 PM)29.93 "Hg (Sep 17, 4:55 PM)
Average75 °F83%30.08 "Hg
* Reported Sep 3 11:15 AM — Sep 18 11:15 AM, Spartanburg, Weather by CustomWeather, © 2014

Note: Actual official high and low records may vary slightly from our data, if they occured in-between our weather recording intervals... More about our weather records

Advertising

Spartanburg weather history for previous 24 hours

 ConditionsComfort  
Time TempWeatherWind HumidityBarometerVisibility
11:15 AM
Sep 18
70 °FFog.3 mph100%30.03 "Hg5 mi
10:55 AM70 °FFog.3 mph100%30.03 "Hg4 mi
10:35 AM70 °FFog.3 mph100%30.02 "Hg2 mi
10:15 AM68 °FFog.No wind100%30.02 "Hg3 mi
9:55 AM68 °FFog.5 mph100%30.02 "Hg3 mi
9:35 AM68 °FFog.3 mph100%30.01 "Hg4 mi
9:15 AM68 °FFog.No wind100%30.00 "Hg5 mi
8:55 AM68 °FFog.3 mph100%29.99 "Hg5 mi
8:35 AM68 °FPartly sunny.3 mph100%29.99 "Hg7 mi
7:55 AM66 °FClear.6 mph100%29.98 "Hg7 mi
7:35 AM66 °FPassing clouds.3 mph100%29.98 "Hg10 mi
7:15 AM66 °FPassing clouds.No wind100%29.98 "Hg10 mi
6:55 AM66 °FPassing clouds.No wind100%29.97 "Hg7 mi
6:35 AM64 °FPassing clouds.3 mphN/A29.96 "Hg7 mi
6:15 AM66 °FPassing clouds.3 mph100%29.95 "Hg7 mi
5:55 AM66 °FPassing clouds.3 mph100%29.95 "Hg7 mi
5:35 AM66 °FPassing clouds.3 mph100%29.95 "Hg10 mi
4:55 AM66 °FPassing clouds.3 mph100%29.94 "Hg7 mi
4:35 AM64 °FClear.3 mph100%29.94 "Hg7 mi
4:15 AM64 °FClear.5 mphN/A29.94 "Hg7 mi
3:55 AM64 °FClear.3 mphN/A29.94 "Hg7 mi
3:35 AM64 °FClear.3 mphN/A29.94 "Hg7 mi
3:15 AM64 °FClear.3 mph100%29.94 "Hg7 mi
2:55 AM64 °FClear.No windN/A29.95 "Hg7 mi
2:35 AM64 °FClear.No wind100%29.95 "Hg7 mi
2:15 AM64 °FClear.No wind100%29.95 "Hg7 mi
1:55 AM66 °FPassing clouds.No wind100%29.96 "Hg10 mi
1:35 AM66 °FPassing clouds.No wind100%29.96 "Hg10 mi
1:15 AM66 °FClear.No wind100%29.97 "Hg7 mi
12:55 AM68 °FPassing clouds.No wind100%29.97 "Hg7 mi
12:35 AM68 °FPassing clouds.No wind100%29.98 "Hg10 mi
12:15 AM68 °FPassing clouds.No wind100%29.98 "Hg10 mi
11:55 PM
Sep 17
68 °FPassing clouds.3 mph100%29.98 "Hg10 mi
11:35 PM66 °FPassing clouds.No wind100%29.98 "Hg10 mi
11:15 PM64 °FClear.No wind100%29.97 "Hg7 mi
10:55 PM64 °FClear.No wind100%29.97 "Hg7 mi
10:35 PM64 °FClear.No wind100%29.97 "Hg7 mi
10:15 PM66 °FClear.No wind100%29.96 "Hg7 mi
9:55 PM68 °FClear.No wind100%29.96 "Hg10 mi
9:35 PM68 °FClear.No wind100%29.96 "Hg10 mi
9:15 PM68 °FClear.5 mph100%29.95 "Hg10 mi
8:55 PM68 °FClear.3 mph100%29.95 "Hg10 mi
8:35 PM68 °FClear.No wind100%29.95 "Hg10 mi
8:15 PM68 °FSunny.3 mph100%29.94 "Hg10 mi
7:55 PM70 °FSunny.3 mph83%29.93 "Hg10 mi
7:35 PM70 °FSunny.3 mph83%29.93 "Hg10 mi
7:15 PM72 °FSunny.3 mph78%29.94 "Hg10 mi
6:55 PM72 °FSunny.3 mph78%29.94 "Hg10 mi
6:35 PM73 °FSunny.5 mph74%29.94 "Hg10 mi
6:15 PM73 °FScattered clouds.5 mph74%29.94 "Hg10 mi
5:55 PM73 °FScattered clouds.3 mph74%29.94 "Hg10 mi
5:35 PM73 °FPartly sunny.5 mph74%29.93 "Hg10 mi
5:15 PM73 °FMostly cloudy.5 mph74%29.94 "Hg10 mi
4:55 PM73 °FPartly sunny.7 mph74%29.93 "Hg10 mi
4:35 PM75 °FBroken clouds.9 mph69%29.94 "Hg10 mi
4:15 PM73 °FOvercast.6 mph74%29.94 "Hg10 mi
3:55 PM72 °FBroken clouds.6 mph78%29.95 "Hg10 mi
3:35 PM72 °FOvercast.6 mph78%29.96 "Hg10 mi
3:15 PM72 °FBroken clouds.5 mph78%29.97 "Hg10 mi
2:55 PM72 °FPartly sunny.3 mph78%29.97 "Hg10 mi
2:35 PM73 °FBroken clouds.6 mph74%29.96 "Hg10 mi
1:55 PM73 °FOvercast.6 mph74%29.97 "Hg10 mi
1:35 PM73 °FOvercast.5 mph74%29.97 "Hg10 mi
1:15 PM73 °FMostly cloudy.5 mph74%29.97 "Hg10 mi
12:55 PM73 °FMostly cloudy.5 mph74%29.97 "Hg10 mi
12:35 PM75 °FMore clouds than sun.5 mph69%29.97 "Hg10 mi
12:15 PM75 °FMore clouds than sun.6 mph69%29.98 "Hg10 mi
Weather by CustomWeather, © 2014

See weather overviewHow to use our weather pages